Location: Madrid
(40.4000°N, 3.6830°W)
Time: 03:33:50
(UTC+02:00)

ISS - Pass Details

Date: 24 May 2019
Orbit: 408 x 418 km, 51.6° (Epoch: 26 May)

Event Time Altitude Azimuth Distance (km) Brightness Sun altitude
Rises 22:34:41 0° 281° (W) 2,344 1.2 -10.7°
Reaches altitude 10° 22:37:21 10° 304° (WNW) 1,486 0.6 -11.1°
Maximum altitude 22:39:32 16° 345° (NNW) 1,173 -0.7 -11.4°
Drops below altitude 10° 22:41:43 10° 25° (NNE) 1,492 -0.8 -11.7°
Sets 22:44:25 0° 48° (NE) 2,359 0.0 -12.1°
